Time,TemperatureF,DewpointF,PressureIn,WindDirection,WindDirectionDegrees,WindSpeedMPH,WindSpeedGustMPH,Humidity,HourlyPrecipIn,Conditions,Clouds,dailyrainin,SoftwareType,DateUTC
2013-02-09 00:01:00,30.0,15.0,29.67,South,189,14.0,21.0,54,-99.99,,,0.00,,2013-02-09 07:01:00,
2013-02-09 00:11:00,29.0,16.0,29.67,SSW,201,12.0,21.0,58,-99.99,,,0.00,,2013-02-09 07:11:00,
2013-02-09 00:21:00,29.0,16.0,29.67,SSW,201,12.0,21.0,58,-99.99,,,0.00,,2013-02-09 07:21:00,
2013-02-09 00:30:00,27.0,20.0,29.69,SSW,197,10.0,18.0,75,-99.99,,,0.00,,2013-02-09 07:30:00,
2013-02-09 00:31:00,29.0,17.0,29.67,South,186,8.0,19.0,60,-99.99,,,0.00,,2013-02-09 07:31:00,
2013-02-09 00:42:00,28.0,18.0,29.68,SW,224,8.0,19.0,67,-99.99,,,0.00,,2013-02-09 07:42:00,
2013-02-09 00:52:00,28.0,18.0,29.68,SW,224,8.0,19.0,67,-99.99,,,0.00,,2013-02-09 07:52:00,
2013-02-09 01:01:00,27.0,19.0,29.69,SSW,197,9.0,18.0,71,-99.99,,,0.00,,2013-02-09 08:01:00,
2013-02-09 01:11:00,27.0,20.0,29.69,SSW,197,10.0,18.0,75,-99.99,,,0.00,,2013-02-09 08:11:00,
2013-02-09 01:21:00,27.0,20.0,29.69,SSW,197,10.0,18.0,75,-99.99,,,0.00,,2013-02-09 08:21:00,
2013-02-09 01:41:00,27.0,20.0,29.68,SSW,200,6.0,16.0,75,-99.99,,,0.00,,2013-02-09 08:41:00,
2013-02-09 02:02:00,27.0,19.0,29.67,SSW,199,2.0,10.0,72,-99.99,,,0.00,,2013-02-09 09:02:00,
2013-02-09 02:11:00,27.0,19.0,29.67,SSW,199,3.0,12.0,70,-99.99,,,0.00,,2013-02-09 09:11:00,
2013-02-09 02:21:00,27.0,19.0,29.67,SSW,199,3.0,12.0,70,-99.99,,,0.00,,2013-02-09 09:21:00,
2013-02-09 02:31:00,27.0,19.0,29.66,SSW,200,5.0,15.0,70,-99.99,,,0.00,,2013-02-09 09:31:00,
2013-02-09 02:41:00,26.0,20.0,29.66,SSW,200,6.0,15.0,77,-99.99,,,0.00,,2013-02-09 09:41:00,
2013-02-09 02:52:00,26.0,20.0,29.66,SSW,200,6.0,15.0,77,-99.99,,,0.00,,2013-02-09 09:52:00,
2013-02-09 03:01:00,26.0,21.0,29.66,SSW,194,4.0,15.0,80,-99.99,,,0.00,,2013-02-09 10:01:00,
2013-02-09 03:11:00,26.0,21.0,29.64,SSW,194,5.0,15.0,80,-99.99,,,0.00,,2013-02-09 10:11:00,
2013-02-09 03:21:00,26.0,21.0,29.64,SSW,194,5.0,15.0,80,-99.99,,,0.00,,2013-02-09 10:21:00,
2013-02-09 03:31:00,26.0,21.0,29.63,SSW,194,5.0,8.0,81,-99.99,,,0.00,,2013-02-09 10:31:00,
2013-02-09 03:41:00,26.0,21.0,29.63,SSW,194,3.0,8.0,82,-99.99,,,0.00,,2013-02-09 10:41:00,
2013-02-09 03:52:00,26.0,21.0,29.63,SSW,194,3.0,8.0,82,-99.99,,,0.00,,2013-02-09 10:52:00,
2013-02-09 04:01:00,26.0,21.0,29.64,SSW,194,1.0,5.0,83,-99.99,,,0.00,,2013-02-09 11:01:00,
2013-02-09 04:11:00,25.0,21.0,29.64,SSW,194,3.0,5.0,84,-99.99,,,0.00,,2013-02-09 11:11:00,
2013-02-09 04:21:00,25.0,21.0,29.64,SSW,194,3.0,5.0,84,-99.99,,,0.00,,2013-02-09 11:21:00,
2013-02-09 04:31:00,25.0,22.0,29.65,SSW,194,4.0,13.0,86,-99.99,,,0.00,,2013-02-09 11:31:00,
2013-02-09 04:41:00,25.0,21.0,29.65,SW,215,13.0,33.0,87,-99.99,,,0.00,,2013-02-09 11:41:00,
2013-02-09 04:52:00,25.0,21.0,29.66,SSW,196,14.0,32.0,84,-99.99,,,0.00,,2013-02-09 11:52:00,
2013-02-09 05:02:00,25.0,21.0,29.66,SSW,196,14.0,32.0,84,-99.99,,,0.00,,2013-02-09 12:02:00,
2013-02-09 05:11:00,25.0,20.0,29.65,South,187,9.0,32.0,84,-99.99,,,0.00,,2013-02-09 12:11:00,
2013-02-09 05:21:00,25.0,20.0,29.65,South,187,9.0,32.0,84,-99.99,,,0.00,,2013-02-09 12:21:00,
2013-02-09 05:32:00,24.0,21.0,29.65,South,178,4.0,13.0,86,-99.99,,,0.00,,2013-02-09 12:32:00,
2013-02-09 05:42:00,24.0,20.0,29.65,South,178,11.0,14.0,85,-99.99,,,0.00,,2013-02-09 12:42:00,
2013-02-09 05:52:00,24.0,20.0,29.65,South,178,11.0,14.0,85,-99.99,,,0.00,,2013-02-09 12:52:00,
2013-02-09 06:02:00,24.0,20.0,29.66,SSW,200,13.0,16.0,83,-99.99,,,0.00,,2013-02-09 13:02:00,
2013-02-09 06:11:00,24.0,19.0,29.67,SSW,209,15.0,21.0,81,-99.99,,,0.00,,2013-02-09 13:11:00,
2013-02-09 06:21:00,24.0,19.0,29.67,SSW,209,15.0,21.0,81,-99.99,,,0.00,,2013-02-09 13:21:00,
2013-02-09 06:31:00,24.0,19.0,29.67,SSW,204,12.0,22.0,80,-99.99,,,0.00,,2013-02-09 13:31:00,
2013-02-09 06:42:00,23.0,18.0,29.68,SSW,211,13.0,28.0,78,-99.99,,,0.00,,2013-02-09 13:42:00,
2013-02-09 06:52:00,23.0,18.0,29.68,SSW,211,13.0,28.0,78,-99.99,,,0.00,,2013-02-09 13:52:00,
2013-02-09 07:01:00,23.0,17.0,29.70,SW,224,12.0,33.0,78,-99.99,,,0.00,,2013-02-09 14:01:00,
2013-02-09 07:11:00,23.0,17.0,29.70,SW,222,18.0,33.0,76,-99.99,,,0.00,,2013-02-09 14:11:00,
2013-02-09 07:21:00,23.0,17.0,29.70,SW,222,18.0,33.0,76,-99.99,,,0.00,,2013-02-09 14:21:00,
2013-02-09 07:31:00,23.0,16.0,29.70,SW,229,20.0,29.0,74,-99.99,,,0.00,,2013-02-09 14:31:00,
2013-02-09 07:41:00,23.0,14.0,29.69,SW,214,26.0,37.0,69,-99.99,,,0.00,,2013-02-09 14:41:00,
2013-02-09 07:52:00,23.0,14.0,29.69,SW,214,26.0,37.0,69,-99.99,,,0.00,,2013-02-09 14:52:00,
2013-02-09 08:01:00,22.0,15.0,29.72,SSW,209,24.0,33.0,74,-99.99,,,0.00,,2013-02-09 15:01:00,
2013-02-09 08:11:00,22.0,16.0,29.71,SW,214,22.0,36.0,76,-99.99,,,-99.99,,2013-02-09 15:11:00,
2013-02-09 08:21:00,22.0,16.0,29.71,SW,214,22.0,36.0,76,-99.99,,,-99.99,,2013-02-09 15:21:00,
2013-02-09 08:31:00,23.0,17.0,29.69,SSW,208,22.0,39.0,75,-99.99,,,-99.99,,2013-02-09 15:31:00,
2013-02-09 08:41:00,24.0,16.0,29.67,SW,225,35.0,41.0,69,-99.99,,,0.00,,2013-02-09 15:41:00,
2013-02-09 08:52:00,24.0,16.0,29.67,SW,225,35.0,41.0,69,-99.99,,,0.00,,2013-02-09 15:52:00,
2013-02-09 09:01:00,24.0,16.0,29.68,SW,224,27.0,42.0,70,-99.99,,,0.00,,2013-02-09 16:01:00,
2013-02-09 09:11:00,24.0,16.0,29.68,SW,234,21.0,42.0,70,-99.99,,,0.00,,2013-02-09 16:11:00,
2013-02-09 09:22:00,24.0,16.0,29.68,SW,234,21.0,42.0,70,-99.99,,,0.00,,2013-02-09 16:22:00,
2013-02-09 09:31:00,24.0,16.0,29.69,SW,223,20.0,40.0,70,-99.99,,,0.00,,2013-02-09 16:31:00,
2013-02-09 09:41:00,25.0,16.0,29.70,SW,218,18.0,40.0,70,-99.99,,,0.00,,2013-02-09 16:41:00,
2013-02-09 09:52:00,25.0,16.0,29.70,SW,218,18.0,40.0,70,-99.99,,,0.00,,2013-02-09 16:52:00,
2013-02-09 10:01:00,25.0,17.0,29.70,SW,228,25.0,42.0,71,-99.99,,,0.00,,2013-02-09 17:01:00,
2013-02-09 10:11:00,25.0,16.0,29.71,SW,225,25.0,42.0,68,-99.99,,,0.00,,2013-02-09 17:11:00,
2013-02-09 10:21:00,25.0,16.0,29.71,SW,225,25.0,42.0,68,-99.99,,,0.00,,2013-02-09 17:21:00,
2013-02-09 10:32:00,25.0,21.0,29.71,SW,222,27.0,45.0,84,-99.99,,,0.00,,2013-02-09 17:32:00,
2013-02-09 10:41:00,25.0,19.0,29.72,SW,232,24.0,45.0,76,-99.99,,,0.00,,2013-02-09 17:41:00,
2013-02-09 10:52:00,25.0,19.0,29.72,SW,232,24.0,45.0,76,-99.99,,,0.00,,2013-02-09 17:52:00,
2013-02-09 11:01:00,25.0,19.0,29.73,SW,222,27.0,43.0,79,-99.99,,,0.00,,2013-02-09 18:01:00,
2013-02-09 11:12:00,27.0,18.0,29.71,SW,218,16.0,43.0,69,-99.99,,,0.00,,2013-02-09 18:12:00,
2013-02-09 11:23:00,27.0,18.0,29.71,SW,218,16.0,43.0,69,-99.99,,,0.00,,2013-02-09 18:23:00,
2013-02-09 11:31:00,27.0,16.0,29.72,WSW,242,18.0,42.0,63,-99.99,,,0.00,,2013-02-09 18:31:00,
2013-02-09 11:42:00,28.0,17.0,29.70,SW,215,16.0,42.0,63,-99.99,,,0.00,,2013-02-09 18:42:00,
2013-02-09 11:52:00,28.0,17.0,29.70,SW,215,16.0,42.0,63,-99.99,,,0.00,,2013-02-09 18:52:00,
2013-02-09 12:01:00,25.0,20.0,29.75,SW,233,33.0,40.0,81,-99.99,,,0.00,,2013-02-09 19:01:00,
2013-02-09 12:11:00,29.0,18.0,29.73,SW,236,23.0,40.0,64,-99.99,,,0.00,,2013-02-09 19:11:00,
2013-02-09 12:22:00,29.0,18.0,29.73,SW,236,23.0,40.0,64,-99.99,,,0.00,,2013-02-09 19:22:00,
2013-02-09 12:31:00,28.0,17.0,29.73,SW,217,31.0,42.0,64,-99.99,,,0.00,,2013-02-09 19:31:00,
2013-02-09 12:41:00,26.0,21.0,29.75,SW,217,27.0,46.0,80,-99.99,,,0.00,,2013-02-09 19:41:00,
2013-02-09 12:52:00,26.0,21.0,29.75,SW,217,27.0,46.0,80,-99.99,,,0.00,,2013-02-09 19:52:00,
2013-02-09 13:01:00,28.0,16.0,29.77,SW,219,20.0,35.0,59,-99.99,,,0.00,,2013-02-09 20:01:00,
2013-02-09 13:11:00,27.0,18.0,29.78,SW,217,20.0,37.0,67,-99.99,,,0.00,,2013-02-09 20:11:00,
2013-02-09 13:21:00,27.0,18.0,29.78,SW,217,20.0,37.0,67,-99.99,,,0.00,,2013-02-09 20:21:00,
2013-02-09 13:31:00,26.0,20.0,29.80,SSW,213,27.0,37.0,77,-99.99,,,0.00,,2013-02-09 20:31:00,
2013-02-09 13:41:00,28.0,19.0,29.78,SW,223,23.0,38.0,70,-99.99,,,0.00,,2013-02-09 20:41:00,
2013-02-09 13:52:00,28.0,19.0,29.78,SW,223,23.0,38.0,70,-99.99,,,0.00,,2013-02-09 20:52:00,
2013-02-09 14:01:00,28.0,19.0,29.78,SSW,205,19.0,39.0,68,-99.99,,,0.00,,2013-02-09 21:01:00,
2013-02-09 14:11:00,29.0,18.0,29.78,WSW,238,26.0,45.0,65,-99.99,,,0.00,,2013-02-09 21:11:00,
2013-02-09 14:21:00,29.0,18.0,29.78,WSW,238,26.0,45.0,65,-99.99,,,0.00,,2013-02-09 21:21:00,
2013-02-09 14:31:00,29.0,18.0,29.78,South,187,31.0,35.0,63,-99.99,,,0.00,,2013-02-09 21:31:00,
2013-02-09 14:41:00,29.0,18.0,29.78,SW,226,27.0,41.0,63,-99.99,,,0.00,,2013-02-09 21:41:00,
2013-02-09 14:52:00,28.0,18.0,29.78,SSW,213,22.0,40.0,67,-99.99,,,0.00,,2013-02-09 21:52:00,
2013-02-09 15:01:00,28.0,18.0,29.78,SSW,213,22.0,40.0,67,-99.99,,,0.00,,2013-02-09 22:01:00,
2013-02-09 15:11:00,27.0,19.0,29.79,SW,214,19.0,40.0,69,-99.99,,,0.00,,2013-02-09 22:11:00,
2013-02-09 15:21:00,27.0,19.0,29.79,SW,214,19.0,40.0,69,-99.99,,,0.00,,2013-02-09 22:21:00,
2013-02-09 15:31:00,27.0,20.0,29.80,SW,219,25.0,39.0,76,-99.99,,,0.00,,2013-02-09 22:31:00,
2013-02-09 15:41:00,27.0,21.0,29.81,SW,223,16.0,46.0,80,-99.99,,,0.00,,2013-02-09 22:41:00,
2013-02-09 15:52:00,27.0,21.0,29.81,SW,223,16.0,46.0,80,-99.99,,,0.00,,2013-02-09 22:52:00,
2013-02-09 16:01:00,26.0,21.0,29.83,SSW,211,25.0,38.0,83,-99.99,,,0.00,,2013-02-09 23:01:00,
2013-02-09 16:11:00,27.0,21.0,29.82,SSW,194,29.0,38.0,78,-99.99,,,0.00,,2013-02-09 23:11:00,
2013-02-09 16:21:00,27.0,21.0,29.82,SSW,194,29.0,38.0,78,-99.99,,,0.00,,2013-02-09 23:21:00,
2013-02-09 16:31:00,26.0,21.0,29.86,WSW,244,21.0,39.0,84,-99.99,,,0.00,,2013-02-09 23:31:00,
2013-02-09 16:42:00,25.0,21.0,29.88,SSW,213,18.0,39.0,83,-99.99,,,0.00,,2013-02-09 23:42:00,
2013-02-09 16:52:00,25.0,21.0,29.88,SSW,213,18.0,39.0,83,-99.99,,,0.00,,2013-02-09 23:52:00,
2013-02-09 17:02:00,26.0,21.0,29.87,SSW,213,14.0,27.0,83,-99.99,,,0.00,,2013-02-10 00:02:00,
2013-02-09 17:11:00,25.0,22.0,29.89,SSW,210,27.0,33.0,87,-99.99,,,0.00,,2013-02-10 00:11:00,
2013-02-09 17:21:00,25.0,22.0,29.89,SSW,210,27.0,33.0,87,-99.99,,,0.00,,2013-02-10 00:21:00,
2013-02-09 17:32:00,26.0,22.0,29.87,SSW,199,17.0,29.0,87,-99.99,,,0.00,,2013-02-10 00:32:00,
2013-02-09 17:41:00,25.0,22.0,29.88,SW,226,26.0,37.0,86,-99.99,,,0.00,,2013-02-10 00:41:00,
2013-02-09 17:52:00,25.0,22.0,29.88,SW,226,26.0,37.0,86,-99.99,,,0.00,,2013-02-10 00:52:00,
2013-02-09 18:01:00,26.0,21.0,29.86,SW,227,14.0,34.0,82,-99.99,,,0.00,,2013-02-10 01:01:00,
2013-02-09 18:11:00,26.0,20.0,29.87,SW,223,16.0,37.0,76,-99.99,,,0.00,,2013-02-10 01:11:00,
2013-02-09 18:21:00,26.0,20.0,29.87,SW,223,16.0,37.0,76,-99.99,,,0.00,,2013-02-10 01:21:00,
2013-02-09 18:31:00,25.0,21.0,29.87,WSW,237,22.0,33.0,83,-99.99,,,0.00,,2013-02-10 01:31:00,
2013-02-09 18:41:00,25.0,22.0,29.89,SW,232,30.0,39.0,87,-99.99,,,0.00,,2013-02-10 01:41:00,
2013-02-09 18:52:00,25.0,22.0,29.89,SW,232,30.0,39.0,87,-99.99,,,0.00,,2013-02-10 01:52:00,
2013-02-09 19:01:00,25.0,22.0,29.90,SW,227,25.0,39.0,87,-99.99,,,0.00,,2013-02-10 02:01:00,
2013-02-09 19:11:00,25.0,22.0,29.89,SW,236,18.0,39.0,87,-99.99,,,0.00,,2013-02-10 02:11:00,
2013-02-09 19:22:00,25.0,22.0,29.89,SW,236,18.0,39.0,87,-99.99,,,0.00,,2013-02-10 02:22:00,
2013-02-09 19:31:00,26.0,21.0,29.90,SSW,210,25.0,39.0,83,-99.99,,,0.00,,2013-02-10 02:31:00,
2013-02-09 19:41:00,26.0,18.0,29.91,SW,229,22.0,41.0,73,-99.99,,,0.00,,2013-02-10 02:41:00,
2013-02-09 19:52:00,26.0,18.0,29.91,SW,229,22.0,41.0,73,-99.99,,,0.00,,2013-02-10 02:52:00,
2013-02-09 20:01:00,26.0,18.0,29.90,WNW,283,19.0,37.0,73,-99.99,,,0.00,,2013-02-10 03:01:00,
2013-02-09 20:11:00,26.0,17.0,29.92,WSW,252,7.0,37.0,69,-99.99,,,-99.99,,2013-02-10 03:11:00,
2013-02-09 20:21:00,26.0,17.0,29.92,WSW,252,7.0,37.0,69,-99.99,,,-99.99,,2013-02-10 03:21:00,
2013-02-09 20:32:00,26.0,20.0,29.94,ESE,114,11.0,32.0,75,-99.99,,,0.00,,2013-02-10 03:32:00,
2013-02-09 20:41:00,26.0,19.0,29.95,NW,309,5.0,32.0,74,-99.99,,,0.00,,2013-02-10 03:41:00,
2013-02-09 20:52:00,26.0,19.0,29.95,NW,309,5.0,32.0,74,-99.99,,,0.00,,2013-02-10 03:52:00,
2013-02-09 21:01:00,27.0,18.0,29.94,South,179,10.0,17.0,71,-99.99,,,0.00,,2013-02-10 04:01:00,
2013-02-09 21:11:00,26.0,19.0,29.94,SSE,155,7.0,19.0,75,-99.99,,,0.00,,2013-02-10 04:11:00,
2013-02-09 21:21:00,26.0,19.0,29.94,SSE,155,7.0,19.0,75,-99.99,,,0.00,,2013-02-10 04:21:00,
2013-02-09 21:32:00,27.0,18.0,29.94,SSW,207,10.0,27.0,70,-99.99,,,0.00,,2013-02-10 04:32:00,
2013-02-09 21:41:00,26.0,19.0,29.96,South,189,13.0,30.0,72,-99.99,,,0.00,,2013-02-10 04:41:00,
2013-02-09 21:52:00,26.0,19.0,29.96,South,189,13.0,30.0,72,-99.99,,,0.00,,2013-02-10 04:52:00,
2013-02-09 22:01:00,26.0,18.0,29.96,WSW,237,7.0,25.0,70,-99.99,,,0.00,,2013-02-10 05:01:00,
2013-02-09 22:11:00,26.0,18.0,29.96,SSW,204,11.0,27.0,71,-99.99,,,0.00,,2013-02-10 05:11:00,
2013-02-09 22:22:00,26.0,18.0,29.96,SSW,204,11.0,27.0,71,-99.99,,,0.00,,2013-02-10 05:22:00,
2013-02-09 22:31:00,26.0,17.0,29.96,WSW,241,16.0,27.0,67,-99.99,,,0.00,,2013-02-10 05:31:00,
2013-02-09 22:41:00,26.0,18.0,29.96,South,182,10.0,27.0,69,-99.99,,,0.00,,2013-02-10 05:41:00,
2013-02-09 22:52:00,26.0,18.0,29.96,South,182,10.0,27.0,69,-99.99,,,0.00,,2013-02-10 05:52:00,
2013-02-09 23:01:00,26.0,17.0,29.93,South,180,6.0,24.0,67,-99.99,,,0.00,,2013-02-10 06:01:00,
2013-02-09 23:11:00,26.0,17.0,29.93,SSW,207,4.0,26.0,68,-99.99,,,0.00,,2013-02-10 06:11:00,
2013-02-09 23:21:00,26.0,17.0,29.93,SSW,207,4.0,26.0,68,-99.99,,,0.00,,2013-02-10 06:21:00,
2013-02-09 23:32:00,26.0,17.0,29.93,SW,229,3.0,26.0,68,-99.99,,,0.00,,2013-02-10 06:32:00,
2013-02-09 23:42:00,26.0,17.0,29.94,West,264,3.0,26.0,70,-99.99,,,0.00,,2013-02-10 06:42:00,
2013-02-09 23:52:00,26.0,17.0,29.94,West,264,3.0,26.0,70,-99.99,,,0.00,,2013-02-10 06:52:00,